Location: Appeville
(49.3218°N, 1.3427°W)
Time: 17:32:04
(UTC+00:00)

CORIOLIS - Pass Details

Date: 08 December 2019
Orbit: 817 x 839 km, 98.7° (Epoch: 22 January)

Event Time Altitude Azimuth Distance (km) Brightness Sun altitude
Rises 06:47:03 0° 15° (NNE) 3,398 7.2 -9.3°
Reaches altitude 10° 06:49:25 10° 16° (NNE) 2,456 6.5 -9.0°
Maximum altitude 06:54:53 86° 105° (ESE) 840 4.3 -8.2°
Drops below altitude 10° 07:00:16 10° 195° (SSW) 2,424 6.7 -7.4°
Sets 07:02:36 0° 196° (SSW) 3,350 7.5 -7.1°
